Date String (YYYY-MM-DD hh:mm:ss) UTC,Instrument flags,absolute air pressure of the measurement (hPa),sample flow rate (lpm),inlet stack bypass flow (lpm),air temperature of the measurement (°C),ambient temperature measured by the external sensor (°C),aerosol sample conditioner tube jacket temperature (°C),OPC LED temperature (°C),internal box temperature (°C),relative humidity of the measurement (%),span deviation,mass concentration of particles derived from Lorenz-Mie calculation of OPC scattering (μg/m³),mass concentration of particles derived from Lorenz-Mie calculation of OPC scattering (μg/m³),mass concentration of particles derived from Lorenz-Mie calculation of OPC scattering (μg/m³)
DateTimeUTC,F1_M11,P_M11,Q1_M11,Q2_M11,T1_M11,T2_M11,T3_M11,T4_M11,T5_M11,U1_M11,ZSPAN_M11,X0_M11,X2_M11,X1_M11
2024-06-05 00:00:00,SystemResetWarning,0825.4,5.01,000.00,028.8,026.9,000.0,037.4,030.2,015.6,0000.0,0008.60,0002.29,0001.08
2024-06-05 00:01:00,SystemResetWarning,0825.4,5.00,000.00,028.9,027.3,000.0,037.4,030.4,016.3,0000.0,0008.27,0002.27,0001.08
2024-06-05 00:02:00,SystemResetWarning,0825.4,5.00,000.00,028.9,027.7,000.0,037.3,030.6,016.3,0000.0,0008.20,0002.28,0001.07
2024-06-05 00:03:00,SystemResetWarning,0825.4,4.99,000.00,029.0,028.0,000.0,037.3,030.8,015.8,0000.0,0008.07,0002.23,0001.05
2024-06-05 00:04:00,SystemResetWarning,0825.4,4.99,000.00,029.1,028.3,000.0,037.3,030.9,015.8,0000.0,0007.90,0002.18,0001.05
2024-06-05 00:05:00,SystemResetWarning,0825.4,5.00,000.00,029.2,028.5,000.0,037.4,031.0,015.8,0000.0,0006.98,0002.20,0001.04
2024-06-05 00:06:00,SystemResetWarning,0825.4,5.01,000.00,029.2,028.7,000.0,037.4,031.1,015.7,0000.0,0006.30,0002.21,0001.02
2024-06-05 00:07:00,SystemResetWarning,0825.4,5.01,000.00,029.3,028.8,000.0,037.4,031.2,015.9,0000.0,0005.69,0002.18,0001.01
2024-06-05 00:08:00,SystemResetWarning,0825.4,5.00,000.00,029.4,029.0,000.0,037.4,031.2,015.9,0000.0,0005.11,0002.14,0000.98
2024-06-05 00:09:00,SystemResetWarning,0825.4,5.00,000.00,029.5,029.1,000.0,037.5,031.4,015.3,0000.0,0005.13,0002.11,0000.98
2024-06-05 00:10:00,SystemResetWarning,0825.4,4.99,000.00,029.6,029.2,000.0,037.5,031.4,014.7,0000.0,0004.74,0002.01,0000.96
2024-06-05 00:11:00,SystemResetWarning,0825.4,4.99,000.00,029.6,029.3,000.0,037.6,031.5,013.9,0000.0,0005.27,0001.96,0000.95
2024-06-05 00:12:00,SystemResetWarning,0825.3,5.00,000.00,029.6,028.1,000.0,037.7,030.9,013.4,0000.0,0006.91,0001.98,0000.94
2024-06-05 00:13:00,SystemResetWarning,0825.2,5.01,000.00,029.1,025.7,000.0,037.7,029.8,013.9,0000.0,0007.33,0001.95,0000.93
2024-06-05 00:14:00,SystemResetWarning,0825.2,5.01,000.00,028.8,025.5,000.0,037.7,029.6,014.3,0000.0,0007.37,0001.88,0000.94
2024-06-05 00:15:00,SystemResetWarning,0825.3,5.01,000.00,028.8,026.1,000.0,037.6,029.8,014.1,0000.0,0007.19,0001.84,0000.93
2024-06-05 00:16:00,SystemResetWarning,0825.3,4.99,000.00,028.8,026.6,000.0,037.5,030.1,014.2,0000.0,0006.90,0001.77,0000.93
2024-06-05 00:17:00,SystemResetWarning,0825.3,5.00,000.00,028.8,027.1,000.0,037.4,030.3,014.2,0000.0,0006.38,0001.72,0000.93
2024-06-05 00:18:00,SystemResetWarning,0825.3,5.00,000.00,028.9,027.5,000.0,037.4,030.5,014.2,0000.0,0006.84,0001.74,0000.94
2024-06-05 00:19:00,SystemResetWarning,0825.3,5.00,000.00,028.9,027.8,000.0,037.4,030.7,013.9,0000.0,0008.05,0001.82,0000.95
2024-06-05 00:20:00,SystemResetWarning,0825.2,5.00,000.00,029.0,028.1,000.0,037.4,030.8,013.9,0000.0,0008.43,0001.80,0000.95
2024-06-05 00:21:00,SystemResetWarning,0825.3,5.00,000.00,029.1,028.3,000.0,037.4,030.9,014.3,0000.0,0008.48,0001.82,0000.96
2024-06-05 00:22:00,SystemResetWarning,0825.3,5.00,000.00,029.2,028.5,000.0,037.4,031.0,013.9,0000.0,0008.45,0001.90,0000.97
2024-06-05 00:23:00,SystemResetWarning,0825.3,5.00,000.00,029.2,028.7,000.0,037.4,031.1,013.7,0000.0,0008.12,0001.96,0000.96
2024-06-05 00:24:00,SystemResetWarning,0825.2,4.99,000.00,029.3,028.9,000.0,037.4,031.2,013.6,0000.0,0008.10,0001.92,0000.95
2024-06-05 00:25:00,SystemResetWarning,0825.2,4.99,000.00,029.4,029.0,000.0,037.5,031.3,013.9,0000.0,0008.44,0001.93,0000.94
2024-06-05 00:26:00,SystemResetWarning,0825.2,5.01,000.00,029.5,029.1,000.0,037.5,031.4,013.9,0000.0,0008.85,0001.95,0000.96
2024-06-05 00:27:00,SystemResetWarning,0825.2,5.01,000.00,029.6,029.3,000.0,037.6,031.4,014.1,0000.0,0009.06,0001.97,0000.95
2024-06-05 00:28:00,SystemResetWarning,0825.1,5.00,000.00,029.6,029.1,000.0,037.6,031.3,014.0,0000.0,0009.19,0002.01,0000.95
2024-06-05 00:29:00,SystemResetWarning,0825.1,4.98,000.00,029.4,027.1,000.0,037.7,030.4,014.3,0000.0,0009.00,0001.99,0000.94
2024-06-05 00:30:00,SystemResetWarning,0825.1,5.03,000.00,029.1,026.6,000.0,037.7,030.1,015.6,0000.0,0008.08,0001.89,0000.93
2024-06-05 00:31:00,SystemResetWarning,0825.1,4.98,000.00,029.1,027.0,000.0,037.6,030.3,015.6,0000.0,0007.62,0001.92,0000.92
2024-06-05 00:32:00,SystemResetWarning,0825.3,4.99,000.00,029.1,027.3,000.0,037.6,030.5,014.9,0000.0,0007.92,0001.97,0000.93
2024-06-05 00:33:00,SystemResetWarning,0825.2,5.00,000.00,029.1,027.7,000.0,037.5,030.7,015.1,0000.0,0007.84,0001.96,0000.93
2024-06-05 00:34:00,SystemResetWarning,0825.3,5.01,000.00,029.2,028.0,000.0,037.5,030.9,015.9,0000.0,0007.91,0001.87,0000.94
2024-06-05 00:35:00,SystemResetWarning,0825.3,5.00,000.00,029.3,028.3,000.0,037.5,031.0,014.5,0000.0,0007.64,0001.94,0000.96
2024-06-05 00:36:00,SystemResetWarning,0825.3,5.00,000.00,029.4,028.6,000.0,037.5,031.2,014.8,0000.0,0007.21,0001.94,0000.98
2024-06-05 00:37:00,SystemResetWarning,0825.3,5.00,000.00,029.4,028.8,000.0,037.6,031.3,016.3,0000.0,0007.32,0002.01,0000.99
2024-06-05 00:38:00,SystemResetWarning,0825.3,5.00,000.00,029.5,029.0,000.0,037.6,031.3,016.3,0000.0,0007.71,0002.08,0001.01
2024-06-05 00:39:00,SystemResetWarning,0825.3,5.00,000.00,029.6,029.1,000.0,037.6,031.4,015.9,0000.0,0007.85,0002.09,0001.04
2024-06-05 00:40:00,SystemResetWarning,0825.4,4.99,000.00,029.7,029.2,000.0,037.7,031.5,015.0,0000.0,0008.32,0002.14,0001.05
2024-06-05 00:41:00,SystemResetWarning,0825.4,4.99,000.00,029.5,027.6,000.0,037.8,030.6,015.1,0000.0,0008.62,0002.18,0001.06
2024-06-05 00:42:00,SystemResetWarning,0825.3,5.02,000.00,029.1,025.5,000.0,037.8,029.5,015.1,0000.0,0009.13,0002.18,0001.08
2024-06-05 00:43:00,SystemResetWarning,0825.3,5.01,000.00,028.8,025.6,000.0,037.7,029.5,015.7,0000.0,0008.85,0002.16,0001.09
2024-06-05 00:44:00,SystemResetWarning,0825.4,4.99,000.00,028.8,026.1,000.0,037.6,029.8,015.3,0000.0,0008.73,0002.14,0001.09
2024-06-05 00:45:00,SystemResetWarning,0825.4,5.00,000.00,028.8,026.6,000.0,037.5,030.1,014.4,0000.0,0008.14,0002.18,0001.09
2024-06-05 00:46:00,SystemResetWarning,0825.4,5.01,000.00,028.8,027.1,000.0,037.4,030.3,014.6,0000.0,0007.98,0002.10,0001.09
2024-06-05 00:47:00,SystemResetWarning,0825.4,5.00,000.00,028.9,027.5,000.0,037.4,030.5,015.9,0000.0,0007.93,0002.15,0001.08
2024-06-05 00:48:00,SystemResetWarning,0825.5,4.99,000.00,029.0,027.8,000.0,037.4,030.7,015.5,0000.0,0007.64,0002.13,0001.08
2024-06-05 00:49:00,SystemResetWarning,0825.5,5.00,000.00,029.1,028.1,000.0,037.4,030.8,014.8,0000.0,0007.74,0002.11,0001.07
2024-06-05 00:50:00,SystemResetWarning,0825.5,5.00,000.00,029.1,028.4,000.0,037.4,030.9,015.1,0000.0,0007.79,0002.16,0001.05
2024-06-05 00:51:00,SystemResetWarning,0825.5,5.01,000.00,029.2,028.6,000.0,037.4,031.0,015.1,0000.0,0007.17,0002.13,0001.04
2024-06-05 00:52:00,SystemResetWarning,0825.5,5.01,000.00,029.3,028.8,000.0,037.4,031.2,015.0,0000.0,0006.85,0002.10,0001.03
2024-06-05 00:53:00,SystemResetWarning,0825.4,5.00,000.00,029.4,029.0,000.0,037.5,031.3,015.0,0000.0,0006.05,0002.15,0001.03
2024-06-05 00:54:00,SystemResetWarning,0825.5,4.99,000.00,029.5,029.1,000.0,037.5,031.3,015.3,0000.0,0006.18,0002.10,0001.02
2024-06-05 00:55:00,SystemResetWarning,0825.5,4.99,000.00,029.5,029.2,000.0,037.6,031.4,014.3,0000.0,0007.06,0002.09,0001.02
2024-06-05 00:56:00,SystemResetWarning,0825.6,4.99,000.00,029.6,029.2,000.0,037.6,031.4,014.2,0000.0,0007.18,0002.09,0001.02
2024-06-05 00:57:00,SystemResetWarning,0825.6,5.00,000.00,029.5,027.5,000.0,037.7,030.6,014.9,0000.0,0007.74,0002.14,0001.01
2024-06-05 00:58:00,SystemResetWarning,0825.5,5.02,000.00,029.1,026.4,000.0,037.7,030.1,015.5,0000.0,0008.69,0002.16,0001.02
2024-06-05 00:59:00,SystemResetWarning,0825.6,5.00,000.00,029.1,026.8,000.0,037.7,030.2,015.4,0000.0,0008.63,0002.12,0001.02
